Location: Unspecified
(0.0000°N, 0.0000°E)
Time: 23:18:22
(UTC+00:00)

deb S5M - Pass Details

Date: 18 June 2024
Orbit: 775 x 867 km, 82.5° (Epoch: 14 July)

Event Time Altitude Azimuth Distance (km) Brightness Sun altitude
Exits shadow 04:39:26 13° 188° (S) 2,191 ? -18.7°
Maximum altitude 04:44:18 77° 273° (W) 834 ? -17.6°
Drops below altitude 10° 04:49:46 10° 359° (N) 2,424 ? -16.4°
Sets 04:52:12 0° 1° (N) 3,370 ? -15.8°
